Trenton, NJ

6:55 PM EST on December 15, 2019 (GMT -0500)
Trenton Mercer

Weather History for KTTN - October, 2019

Change the Weather History Date:

Saturday, October 26, 2019

  Actual Average Record
Temperature  
Mean Temperature 56 °F 52 °F  
Max Temperature 64 °F 62 °F 78 °F (1920)
Min Temperature 48 °F 41 °F 29 °F (1933)
Degree Days  
Heating Degree Days 8 14  
Month to date heating degree days 210 260  
Since 1 July heating degree days 228 325  
Cooling Degree Days 0 0  
Month to date cooling degree days 26 7  
Year to date cooling degree days 1163 962  
Growing Degree Days 6 (Base 50)    
Moisture  
Dew Point 47 °F    
Average Humidity 74    
Maximum Humidity 93    
Minimum Humidity 48    
Precipitation  
Precipitation 0.01 in 0.12 in 3.22 in (1872)
Month to date precipitation 3.21 3.56  
Year to date precipitation 41.87 38.81  
Sea Level Pressure  
Sea Level Pressure 30.19 in    
Wind  
Wind Speed 4 mph ()    
Max Wind Speed 13 mph    
Max Gust Speed 17 mph    
Visibility 9.9 miles    
Events Rain    
T = Trace of Precipitation, MM = Missing Value Source: Averaged Metar Reports

Daily Weather History Graph

Daily Weather History Graph

Search for Another Location

Airport or City:

Astronomy

Oct. 26, 2019 Rise Set
Actual Time 7:21 AM EDT 6:04 PM EDT
Civil Twilight 6:53 AM EDT 6:31 PM EDT
Nautical Twilight 6:21 AM EDT 7:03 PM EDT
Astronomical Twilight 5:50 AM EDT 7:35 PM EDT
Moon 5:13 AM EDT (10/26) 5:38 PM EDT (10/26)
Length of Visible Light 11h 38m
Length of Day
10h 42m
Waning Crescent, 3% of the Moon is Illuminated
Oct 26
Waning Crescent
Oct 27
New
Nov 4
First Quarter
Nov 12
Full
Nov 19
Last Quarter

Hourly Weather History & Observations

Time (EDT) Temp. Dew Point Humidity Pressure Visibility Wind Dir Wind Speed Gust Speed Precip Events Conditions
12:53 AM 55.9 °F 52.0 °F 87% 30.15 in 10.0 mi Calm Calm - N/A   Overcast
1:53 AM 57.0 °F 51.1 °F 81% 30.15 in 10.0 mi WSW 3.5 mph - N/A   Clear
2:53 AM 55.9 °F 50.0 °F 80% 30.15 in 10.0 mi Calm Calm - N/A   Clear
3:53 AM 54.0 °F 48.9 °F 83% 30.15 in 10.0 mi WNW 3.5 mph - N/A   Clear
4:53 AM 51.1 °F 48.0 °F 89% 30.16 in 10.0 mi NW 3.5 mph - N/A   Clear
5:53 AM 50.0 °F 48.0 °F 93% 30.17 in 9.0 mi NNW 4.6 mph - N/A   Clear
6:53 AM 48.9 °F 46.9 °F 93% 30.18 in 10.0 mi NNW 3.5 mph - N/A   Clear
7:53 AM 48.9 °F 46.0 °F 90% 30.20 in 9.0 mi NNW 4.6 mph - N/A   Clear
8:53 AM 53.1 °F 48.0 °F 83% 30.23 in 10.0 mi North 3.5 mph - N/A   Clear
9:53 AM 59.0 °F 46.0 °F 62% 30.23 in 10.0 mi NNE 8.1 mph - N/A   Clear
10:53 AM 62.1 °F 42.1 °F 48% 30.22 in 10.0 mi NNE 9.2 mph - N/A   Clear
11:53 AM 63.0 °F 43.0 °F 48% 30.22 in 10.0 mi ENE 8.1 mph - N/A   Clear
12:53 PM 64.0 °F 44.1 °F 48% 30.20 in 10.0 mi ENE 9.2 mph - N/A   Clear
1:53 PM 64.9 °F 46.0 °F 50% 30.19 in 10.0 mi Variable 5.8 mph - N/A   Clear
2:53 PM 64.0 °F 45.0 °F 50% 30.18 in 10.0 mi ESE 4.6 mph - N/A   Clear
3:53 PM 63.0 °F 46.0 °F 54% 30.18 in 10.0 mi ESE 4.6 mph - N/A   Mostly Cloudy
4:53 PM 60.1 °F 46.9 °F 62% 30.20 in 10.0 mi SSE 10.4 mph - N/A   Overcast
5:53 PM 55.9 °F 48.9 °F 77% 30.21 in 10.0 mi SSE 8.1 mph - 0.00 in Rain Light Rain
6:53 PM 54.0 °F 48.9 °F 83% 30.21 in 10.0 mi ESE 5.8 mph - 0.00 in Rain Light Rain
7:53 PM 54.0 °F 48.0 °F 80% 30.21 in 10.0 mi ESE 6.9 mph - 0.00 in   Overcast
8:53 PM 54.0 °F 48.0 °F 80% 30.21 in 10.0 mi East 3.5 mph - N/A   Overcast
9:53 PM 54.0 °F 48.0 °F 80% 30.21 in 10.0 mi Calm Calm - 0.00 in Rain Light Rain
10:53 PM 53.1 °F 48.9 °F 86% 30.20 in 10.0 mi East 4.6 mph - 0.01 in Rain Light Rain
11:53 PM 53.1 °F 48.9 °F 86% 30.19 in 10.0 mi East 4.6 mph - 0.00 in   Overcast